This is the latest recevied weather packets stored in our database for station/object SP9WPN-12. If no packets are shown the sender has not sent any weather packets the latest 10 day(s).
| Time | Temp. | Humidity | Pressure | Rain* | Wind** | Luminosity | Snow |
|---|---|---|---|---|---|---|---|
| 1777973302 | 26.67° C | 23% | 1008.3 hPa | - | - | - | - |
| 1777972704 | 26.67° C | 24% | 1008.5 hPa | - | - | - | - |
| 1777972107 | 27.22° C | 24% | 1008.5 hPa | - | - | - | - |
| 1777971509 | 26.11° C | 29% | 1008.7 hPa | - | - | - | - |
| 1777970911 | 26.67° C | 30% | 1008.8 hPa | - | - | - | - |
| 1777970313 | 26.11° C | 31% | 1009 hPa | - | - | - | - |
| 1777969714 | 25° C | 31% | 1009.2 hPa | - | - | - | - |
| 1777969117 | 25° C | 31% | 1009.4 hPa | - | - | - | - |
| 1777968518 | 25° C | 31% | 1009.5 hPa | - | - | - | - |
| 1777967920 | 23.89° C | 31% | 1009.8 hPa | - | - | - | - |
| 1777967322 | 24.44° C | 32% | 1009.8 hPa | - | - | - | - |
| 1777966723 | 23.89° C | 32% | 1009.9 hPa | - | - | - | - |
| 1777966125 | 23.33° C | 32% | 1010.2 hPa | - | - | - | - |
| 1777965527 | 23.33° C | 32% | 1010.3 hPa | - | - | - | - |
| 1777964930 | 22.78° C | 34% | 1010.4 hPa | - | - | - | - |
| 1777964332 | 22.22° C | 34% | 1010.6 hPa | - | - | - | - |
| 1777963734 | 21.67° C | 35% | 1010.7 hPa | - | - | - | - |
| 1777963136 | 22.22° C | 35% | 1010.8 hPa | - | - | - | - |
| 1777962538 | 21.11° C | 36% | 1010.9 hPa | - | - | - | - |
| 1777961940 | 21.11° C | 38% | 1011 hPa | - | - | - | - |
| 1777961342 | 20° C | 39% | 1011.1 hPa | - | - | - | - |
| 1777960744 | 20° C | 39% | 1011.3 hPa | - | - | - | - |
| 1777960145 | 18.89° C | 41% | 1011.4 hPa | - | - | - | - |
| 1777959547 | 18.33° C | 41% | 1011.6 hPa | - | - | - | - |
| 1777958950 | 18.33° C | 43% | 1011.7 hPa | - | - | - | - |
* Rain since midnight (hover to see other rain measurements)
** Current wind speed in m/s (hover to see current wind gust speed)